• In Romania
  • List of Countries
  • For 7 days
  • Water Temperature
  • Satellite Maps
  • Weather Map
  • Weather Widgets
  • user-avatar
    Login

    Hourly Weather São Paulo

    Today, 22 October, Sunday

    Time Temperature Precipitation Wind Pressure Humidity
    00:00 +23°C° 0 mm 1 mps 699 mmHg 68%
    01:00 +23°C° 0 mm 2 mps 698 mmHg 69%
    02:00 +23°C° 0 mm 2 mps 698 mmHg 69%
    03:00 +22°C° 0 mm 3 mps 697 mmHg 70%
    04:00 +22°C° 0 mm 3 mps 697 mmHg 70%
    05:00 +22°C° 0 mm 4 mps 698 mmHg 69%
    06:00 +22°C° 0 mm 4 mps 698 mmHg 69%
    07:00 +23°C° 0.1 mm 4 mps 698 mmHg 69%
    08:00 +23°C° 0.1 mm 4 mps 699 mmHg 69%
    09:00 +23°C° 0.1 mm 5 mps 699 mmHg 70%
    10:00 +26°C° 0.2 mm 5 mps 699 mmHg 65%
    11:00 +27°C° 0.2 mm 4 mps 699 mmHg 60%
    12:00 +28°C° 0.2 mm 4 mps 699 mmHg 56%
    13:00 +28°C° 0.7 mm 4 mps 699 mmHg 58%
    14:00 +27°C° 0.7 mm 4 mps 698 mmHg 59%
    15:00 +27°C° 0.7 mm 4 mps 698 mmHg 61%
    16:00 +26°C° 2 mm 3 mps 698 mmHg 67%
    17:00 +24°C° 2 mm 3 mps 698 mmHg 73%
    18:00 +23°C° 2 mm 2 mps 698 mmHg 80%
    19:00 +23°C° 2.5 mm 2 mps 699 mmHg 82%
    20:00 +21°C° 2.5 mm 2 mps 699 mmHg 85%
    21:00 +22°C° 2.5 mm 1 mps 700 mmHg 88%
    22:00 +20°C° 1.4 mm 2 mps 700 mmHg 89%
    23:00 +20°C° 1.4 mm 3 mps 700 mmHg 90%

    Tomorrow, 23 October, Monday

    Time Temperature Precipitation Wind Pressure Humidity
    00:00 +19°C° 1.4 mm 3 mps 700 mmHg 92%
    01:00 +19°C° 1.1 mm 3 mps 699 mmHg 92%
    02:00 +18°C° 1.1 mm 3 mps 699 mmHg 92%
    03:00 +18°C° 1.1 mm 3 mps 699 mmHg 92%
    04:00 +18°C° 0.8 mm 3 mps 699 mmHg 91%
    05:00 +17°C° 0.8 mm 3 mps 699 mmHg 91%
    06:00 +17°C° 0.8 mm 3 mps 700 mmHg 91%
    07:00 +17°C° 0.3 mm 3 mps 700 mmHg 90%
    08:00 +18°C° 0.3 mm 3 mps 701 mmHg 88%
    09:00 +18°C° 0.3 mm 3 mps 701 mmHg 87%
    10:00 +18°C° 0.1 mm 3 mps 701 mmHg 85%
    11:00 +19°C° 0.1 mm 3 mps 701 mmHg 83%
    12:00 +19°C° 0.1 mm 3 mps 701 mmHg 81%
    13:00 +19°C° 0.1 mm 3 mps 701 mmHg 83%
    14:00 +18°C° 0.1 mm 3 mps 700 mmHg 84%
    15:00 +18°C° 0.1 mm 3 mps 700 mmHg 85%
    16:00 +17°C° 0.1 mm 3 mps 700 mmHg 86%
    17:00 +17°C° 0.1 mm 3 mps 700 mmHg 87%
    18:00 +17°C° 0.1 mm 3 mps 700 mmHg 87%
    19:00 +17°C° 0.1 mm 3 mps 700 mmHg 88%
    20:00 +17°C° 0.1 mm 3 mps 701 mmHg 88%
    21:00 +17°C° 0.1 mm 3 mps 701 mmHg 89%
    22:00 +17°C° 0 mm 3 mps 701 mmHg 89%
    23:00 +17°C° 0 mm 3 mps 701 mmHg 89%

    Day after tomorrow, 24 October, Tuesday

    Time Temperature Precipitation Wind Pressure Humidity
    00:00 +17°C° 0 mm 3 mps 700 mmHg 89%
    01:00 +17°C° 0 mm 3 mps 700 mmHg 89%
    02:00 +17°C° 0 mm 3 mps 700 mmHg 90%
    03:00 +17°C° 0 mm 3 mps 699 mmHg 90%
    04:00 +17°C° 0 mm 3 mps 699 mmHg 90%
    05:00 +17°C° 0 mm 3 mps 700 mmHg 89%
    06:00 +17°C° 0 mm 3 mps 700 mmHg 89%
    07:00 +18°C° 0 mm 3 mps 700 mmHg 85%
    08:00 +19°C° 0 mm 2 mps 701 mmHg 81%
    09:00 +20°C° 0 mm 2 mps 701 mmHg 76%
    10:00 +21°C° 0.1 mm 2 mps 701 mmHg 75%
    11:00 +23°C° 0.1 mm 2 mps 701 mmHg 73%
    12:00 +24°C° 0.1 mm 2 mps 701 mmHg 71%
    13:00 +22°C° 0.1 mm 3 mps 701 mmHg 72%
    14:00 +22°C° 0.1 mm 3 mps 700 mmHg 72%
    15:00 +22°C° 0.1 mm 3 mps 700 mmHg 73%
    16:00 +21°C° 0 mm 3 mps 700 mmHg 76%
    17:00 +21°C° 0 mm 3 mps 700 mmHg 80%
    18:00 +20°C° 0 mm 3 mps 700 mmHg 84%
    19:00 +19°C° 0 mm 3 mps 700 mmHg 85%
    20:00 +19°C° 0 mm 3 mps 701 mmHg 87%
    21:00 +19°C° 0 mm 3 mps 701 mmHg 88%
    22:00 +18°C° 0 mm 2 mps 701 mmHg 89%
    23:00 +18°C° 0 mm 2 mps 700 mmHg 90%

    25 October, Wednesday

    Time Temperature Precipitation Wind Pressure Humidity
    00:00 +18°C° 0 mm 2 mps 700 mmHg 91%
    01:00 +18°C° 0 mm 2 mps 700 mmHg 91%
    02:00 +18°C° 0 mm 2 mps 700 mmHg 90%
    03:00 +18°C° 0 mm 2 mps 699 mmHg 90%
    04:00 +18°C° 0 mm 2 mps 700 mmHg 90%
    05:00 +18°C° 0 mm 2 mps 700 mmHg 90%
    06:00 +18°C° 0 mm 2 mps 700 mmHg 90%
    07:00 +20°C° 0 mm 2 mps 701 mmHg 83%
    08:00 +23°C° 0 mm 2 mps 701 mmHg 75%
    09:00 +25°C° 0 mm 2 mps 701 mmHg 67%
    10:00 +26°C° 0 mm 2 mps 701 mmHg 63%
    11:00 +28°C° 0 mm 2 mps 701 mmHg 59%
    12:00 +29°C° 0 mm 2 mps 701 mmHg 55%
    13:00 +28°C° 1.1 mm 2 mps 701 mmHg 60%
    14:00 +27°C° 1.1 mm 2 mps 700 mmHg 66%
    15:00 +26°C° 1.1 mm 2 mps 699 mmHg 71%
    16:00 +25°C° 0.6 mm 2 mps 699 mmHg 76%
    17:00 +24°C° 0.6 mm 3 mps 699 mmHg 81%
    18:00 +22°C° 0.6 mm 3 mps 699 mmHg 86%
    19:00 +23°C° 0.6 mm 2 mps 699 mmHg 88%
    20:00 +21°C° 0.6 mm 2 mps 699 mmHg 89%
    21:00 +22°C° 0.6 mm 1 mps 700 mmHg 91%
    22:00 +21°C° 0.3 mm 2 mps 699 mmHg 90%
    23:00 +21°C° 0.3 mm 2 mps 699 mmHg 90%

    26 October, Thursday

    Time Temperature Precipitation Wind Pressure Humidity
    00:00 +21°C° 0.3 mm 2 mps 698 mmHg 89%
    01:00 +20°C° 0 mm 2 mps 698 mmHg 88%
    02:00 +20°C° 0 mm 2 mps 697 mmHg 87%
    03:00 +21°C° 0 mm 1 mps 696 mmHg 86%
    04:00 +21°C° 0 mm 1 mps 697 mmHg 86%
    05:00 +21°C° 0 mm 1 mps 697 mmHg 86%
    06:00 +21°C° 0 mm 1 mps 697 mmHg 86%
    07:00 +22°C° 0 mm 1 mps 698 mmHg 81%
    08:00 +24°C° 0 mm 1 mps 698 mmHg 76%
    09:00 +25°C° 0 mm 1 mps 699 mmHg 71%
    10:00 +27°C° 0.1 mm 2 mps 699 mmHg 65%
    11:00 +28°C° 0.1 mm 2 mps 699 mmHg 58%
    12:00 +30°C° 0.1 mm 3 mps 698 mmHg 52%
    13:00 +30°C° 0.7 mm 3 mps 698 mmHg 54%
    14:00 +29°C° 0.7 mm 3 mps 697 mmHg 57%
    15:00 +29°C° 0.7 mm 3 mps 697 mmHg 59%
    16:00 +28°C° 0.6 mm 2 mps 697 mmHg 64%
    17:00 +27°C° 0.6 mm 2 mps 697 mmHg 68%
    18:00 +26°C° 0.6 mm 2 mps 697 mmHg 73%
    19:00 +25°C° 1 mm 2 mps 697 mmHg 75%
    20:00 +24°C° 1 mm 1 mps 697 mmHg 78%
    21:00 +23°C° 1 mm 1 mps 697 mmHg 80%
    22:00 +23°C° 0.9 mm 1 mps 697 mmHg 82%
    23:00 +23°C° 0.9 mm 1 mps 696 mmHg 83%

    27 October, Friday

    Time Temperature Precipitation Wind Pressure Humidity
    00:00 +23°C° 0.9 mm 1 mps 696 mmHg 84%
    01:00 +22°C° 0 mm 1 mps 696 mmHg 84%
    02:00 +21°C° 0 mm 2 mps 695 mmHg 83%
    03:00 +21°C° 0 mm 2 mps 695 mmHg 83%
    04:00 +21°C° 0.2 mm 2 mps 695 mmHg 82%
    05:00 +21°C° 0.2 mm 2 mps 695 mmHg 81%
    06:00 +21°C° 0.2 mm 2 mps 695 mmHg 81%
    07:00 +24°C° 0.1 mm 3 mps 696 mmHg 75%
    08:00 +25°C° 0.1 mm 4 mps 696 mmHg 69%
    09:00 +26°C° 0.1 mm 5 mps 697 mmHg 64%
    10:00 +27°C° 0.1 mm 5 mps 697 mmHg 61%
    11:00 +28°C° 0.1 mm 5 mps 696 mmHg 59%
    12:00 +28°C° 0.1 mm 5 mps 696 mmHg 57%
    13:00 +28°C° 0.5 mm 5 mps 695 mmHg 60%
    14:00 +27°C° 0.5 mm 5 mps 695 mmHg 63%
    15:00 +26°C° 0.5 mm 5 mps 694 mmHg 65%
    16:00 +26°C° 0.1 mm 4 mps 694 mmHg 67%
    17:00 +25°C° 0.1 mm 3 mps 694 mmHg 69%
    18:00 +25°C° 0.1 mm 3 mps 694 mmHg 70%
    19:00 +24°C° 0 mm 2 mps 694 mmHg 73%
    20:00 +24°C° 0 mm 2 mps 694 mmHg 75%
    21:00 +23°C° 0 mm 1 mps 695 mmHg 77%
    22:00 +23°C° 0 mm 1 mps 695 mmHg 78%
    23:00 +22°C° 0 mm 1 mps 694 mmHg 79%
    Show more